Terug naar catalogus

FREGAT DEB

ActiefUNKNOWN
NORAD 45814·DEBRIS·🇷🇺 Russia

Gelanceerd Jul 18, 2011 vanaf Baikonur Cosmodrome

Loading…

Volgende Passages (komende 24 uur)

TLE

VersSource: Space-Track

Epoch: Sep 13, 2026, 22:52 UTC

1 45814U 11037AY  26256.95302978  .00006062  00000-0  40093-1 0  9999
2 45814  51.1178 337.0020 0971363 172.4115 189.2672 11.56390190262002

Volg FREGAT DEB in realtime met AllMySat

Download on the App Store